This demonstration page uses our WeatherBlox Daily Observations layout. Learn more.

39.92423, -83.80882

Hourly Observations for August 4, 2017

Temp ( °F °C ) Dew Point ( °F °C ) Humidity (%) Winds ( mph kmh ) Pressure ( in mb ) Visibility ( mi km ) Precip ( " mm )
12:56 am 00:56 Clear 69 20.6 67 19.4 93 93 SSW 5 7 29.94 1014 10 16.0934 0 0
1:56 am 01:56 Clear 68 20 66 18.9 93 93 S 6 9 29.94 1014 10 16.0934 0 0
2:56 am 02:56 Clear 68 20 65 18.3 90 90 S 6 9 29.93 1014 10 16.0934 0 0
3:56 am 03:56 Clear 69 20.6 66 18.9 90 90 SSW 7 11 29.92 1013 10 16.0934 0 0
4:56 am 04:56 Clear 70 21.1 66 18.9 87 87 S 8 13 29.9 1013 10 16.0934 0 0
5:56 am 05:56 Clear 68 20 66 18.9 93 93 VRB 3 6 29.9 1012 10 16.0934 0 0
6:56 am 06:56 Sunny 68 20 66 18.9 93 93 SSW 5 7 29.89 1012 10 16.0934 0 0
7:56 am 07:56 Sunny 70 21.1 67 19.4 90 90 SSW 6 9 29.89 1012 10 16.0934 0 0
8:56 am 08:56 Sunny 72 22.2 68 20 87 87 SSW 8 13 29.9 1013 10 16.0934 0 0
9:56 am 09:56 Sunny 74 23.3 69 20.6 85 85 SSW 10 17 29.89 1012 10 16.0934 0 0
10:56 am 10:56 Sunny 73 22.8 69 20.6 87 87 SSW 8 13 29.89 1012 10 16.0934 0 0
11:41 am 11:41 Partly Cloudy with Nearby Thunderstorms 73 23 70 21 89 89 SW 15 24 29.88 1012 10 16.0934 0.03 0.762
11:56 am 11:56 Partly Cloudy with Nearby Thunderstorms 74 23.3 69 20.6 85 85 SSW 13 20 29.88 1012 10 16.0934 0.03 0.762
12:56 pm 12:56 Sunny 70 21.1 68 20 93 93 W 12 19 29.89 1012 10 16.0934 0.04 1.016
1:56 pm 13:56 Sunny 74 23.3 66 18.9 76 76 W 16 26 29.87 1012 10 16.0934 0 0
3:56 pm 15:56 Sunny 75 23.9 62 16.7 64 64 W 23 37 29.87 1012 10 16.0934 0 0
4:56 pm 16:56 Sunny 74 23.3 57 13.9 56 56 W 20 31 29.88 1012 10 16.0934 0 0
5:56 pm 17:56 Sunny 71 21.7 55 12.8 57 57 W 18 30 29.91 1013 10 16.0934 0 0
6:56 pm 18:56 Sunny 68 20 54 12.2 61 61 WNW 14 22 29.93 1014 10 16.0934 0 0
7:56 pm 19:56 Sunny 64 17.8 53 11.7 68 68 WNW 14 22 29.96 1015 10 16.0934 0 0
8:56 pm 20:56 Clear 62 16.7 51 10.6 67 67 W 21 33 29.98 1015 10 16.0934 0 0
9:56 pm 21:56 Clear 61 16.1 51 10.6 70 70 W 10 17 30 1016 10 16.0934 0 0
10:56 pm 22:56 Clear 61 16.1 51 10.6 70 70 W 14 22 30.01 1016 10 16.0934 0 0
11:56 pm 23:56 Clear 61 16.1 52 11.1 72 72 W 14 22 30.01 1016 10 16.0934 0 0

Powered by AerisWeather